471  
ASUS46 KSEW 070020  
RWRWA  
 
WASHINGTON REGIONAL WEATHER ROUNDUP  
NATIONAL WEATHER SERVICE SEATTLE WA  
500 PM PDT MON APR 06 2020  
 
NOTE:"FAIR" INDICATES FEW OR NO CLOUDS BELOW 12,000 FEET WITH NO  
SIGNIFICANT WEATHER AND/OR S TO VISIBILITY
.  
 
WAZ507-509-555>559-070100-  
SEATTLE, TACOMA, EVERETT, AND VICINITY  
 
CITY SKY/WX TMP DP RH WIND PRES REMARKS
 
EVERETT FAIR 56 32 40 W5 29.98R  
6HR MIN TEMP: 49; 6HR MAX TEMP: 57;  
 
BOEING FIELD PTSUNNY 59 30 33 NW3 29.97R  
6HR MIN TEMP: 52; 6HR MAX TEMP: 61;  
 
RENTON FAIR 60 32 34 N6 29.97R  
6HR MIN TEMP: 50; 6HR MAX TEMP: 60;  
 
SEATAC AIRPORT PTSUNNY 58 32 37 S8 29.98R  
6HR MIN TEMP: 52; 6HR MAX TEMP: 60;  
 
JBLM-MCCHORD FAIR 59 31 35 W6 29.97S  
6HR MIN TEMP: 51; 6HR MAX TEMP: 59;  
 
PUYALLUP FAIR 61 32 33 VRB3 29.98R  
BREMERTON FAIR 60 35 39 SW8 29.97R  
6HR MIN TEMP: 52; 6HR MAX TEMP: 61;  
 
JBLM-FT LEWIS FAIR 60 39 46 W5 29.96S  
6HR MIN TEMP: 51; 6HR MAX TEMP: 60;  
 
TACOMA NARROWS FAIR 55 32 41 S6 29.98R  
6HR MIN TEMP: 48; 6HR MAX TEMP: 56;  
 

 
 
WAZ001-503-506-510-514-515-070100-  
NORTH INTERIOR  
 
CITY SKY/WX TMP DP RH WIND PRES REMARKS
 
BELLINGHAM FAIR 56 33 42 S7 29.97S  
6HR MIN TEMP: 48; 6HR MAX TEMP: 56;  
 
FRIDAY HARBOR FAIR 56 33 42 S8 29.98S  
6HR MIN TEMP: 50; 6HR MAX TEMP: 56;  
 
EASTSOUND FAIR 54 36 50 VRB5 29.97R  
PORT ANGELES FAIR 53 32 44 NW9G18 29.99S  
6HR MIN TEMP: 49; 6HR MAX TEMP: 55;  
 
EDIZ HOOK FAIR 52 34 50 NW6 29.99S  
6HR MIN TEMP: 48; 6HR MAX TEMP: 53;  
 
PORT TOWNSEND FAIR 57 28 33 E7 29.97S  
NAS WHIDBEY PTSUNNY 59 27 29 W3 30.02S  
6HR MIN TEMP: 52; 6HR MAX TEMP: 59;  
 
ARLINGTON FAIR 57 32 38 NW7 29.98S  
6HR MIN TEMP: 50; 6HR MAX TEMP: 58;  
 
BURLINGTON SUNNY 63 30 29 CALM 29.98S  

 
 
WAZ020-022-039-040-504-511-512-070100-  
SOUTHWEST INTERIOR  
 
CITY SKY/WX TMP DP RH WIND PRES REMARKS
 
SHELTON FAIR 62 34 35 SW12 29.94R  
6HR MIN TEMP: 51; 6HR MAX TEMP: 62;  
 
OLYMPIA FAIR 61 31 32 SW3 29.96S  
6HR MIN TEMP: 51; 6HR MAX TEMP: 61;  
 
CHEHALIS PTSUNNY 64 36 34 NE5 29.96S  
KELSO FAIR 64 38 38 NW7 29.97R  
6HR MIN TEMP: 52; 6HR MAX TEMP: 64;  
 
VANCOUVER FAIR 62 38 40 SW3 29.96R  
6HR MIN TEMP: 50; 6HR MAX TEMP: 62;  
 
SCAPPOOSE, OR FAIR 61 43 51 SE5 29.96R  
6HR MIN TEMP: 51; 6HR MAX TEMP: 62;  
 
PORTLAND, OR CLOUDY 63 38 39 W3 29.97R  
6HR MIN TEMP: 50; 6HR MAX TEMP: 63;  
 

 
 
WAZ021-516-517-070100-  
WASHINGTON COAST  
 
CITY SKY/WX TMP DP RH WIND PRES REMARKS
 
FORKS FAIR 51 39 63 W13 30.01S  
6HR MIN TEMP: 50; 6HR MAX TEMP: 55;  
 
HOQUIAM FAIR 53 42 66 W20 30.02R  
6HR MIN TEMP: 49; 6HR MAX TEMP: 55;  
 
ASTORIA, OR NOT AVBL  

 
 
WAZ019-023-024-040-567>569-070100-  
CASCADE MOUNTAINS AND COLUMBIA GORGE  
 
CITY SKY/WX TMP DP RH WIND PRES REMARKS
 
STAMPEDE PASS PTSUNNY 44 27 51 W9 29.92R  
6HR MIN TEMP: 39; 6HR MAX TEMP: 46;  
 
TROUTDALE, OR FAIR 63 37 38 VRB6 29.96S  
6HR MIN TEMP: 50; 6HR MAX TEMP: 64;  
 
HOOD RIVER, OR FAIR 63 36 36 SW5 29.93R  
THE DALLES, OR FAIR 65 37 35 W16 29.89S  
6HR MIN TEMP: 53; 6HR MAX TEMP: 66;  
 

 
 
WAZ026-027-041>044-520-521-070100-  
EAST SLOPES  
 
CITY SKY/WX TMP DP RH WIND PRES REMARKS
 
OMAK FAIR 63 26 24 S10 29.77F  
6HR MIN TEMP: 52; 6HR MAX TEMP: 63;  
 
WENATCHEE FAIR 64 23 21 NW14 29.80S  
6HR MIN TEMP: 50; 6HR MAX TEMP: 64;  
 
ELLENSBURG FAIR 61 27 27 NW26 29.84R  
6HR MIN TEMP: 54; 6HR MAX TEMP: 63;  
 
YAKIMA FAIR 66 31 27 S5 29.83S  
6HR MIN TEMP: 54; 6HR MAX TEMP: 67;  
 
SUNNYSIDE ARPT FAIR 66 34 31 E3 29.83S  
6HR MIN TEMP: 53; 6HR MAX TEMP: 66;  
 
YAKIMA TC NOT AVBL  

 
 
WAZ028-034-035-070100-  
COLUMBIA BASIN  
 
CITY SKY/WX TMP DP RH WIND PRES REMARKS
 
EPHRATA FAIR 64 29 26 S8 29.80F  
6HR MIN TEMP: 53; 6HR MAX TEMP: 64;  
 
MOSES LAKE FAIR 66 27 23 SW10G22 29.82F  
6HR MIN TEMP: 54; 6HR MAX TEMP: 67;  
 
PASCO FAIR 68 34 28 SW7 29.85S  
6HR MIN TEMP: 56; 6HR MAX TEMP: 69;  
 
RICHLAND ARPT FAIR 69 35 29 W7 29.84S  
6HR MIN TEMP: 56; 6HR MAX TEMP: 69;  
 
HERMISTON, OR FAIR 66 34 30 W10 29.84S  
6HR MIN TEMP: 54; 6HR MAX TEMP: 69;  
 

 
 
WAZ036>038-070100-  
NORTHEAST WASHINGTON  
 
CITY SKY/WX TMP DP RH WIND PRES REMARKS
 
SPOKANE GEIGER PTSUNNY 56 28 34 W17G25 29.82S  
6HR MIN TEMP: 47; 6HR MAX TEMP: 57;  
 
SPOKANE FELTS FAIR 57 29 34 SW9 29.82S  
6HR MIN TEMP: 46; 6HR MAX TEMP: 59;  
 
FAIRCHILD AFB MOSUNNY 55 29 36 SW14 29.81S  
6HR MIN TEMP: 47; 6HR MAX TEMP: 56;  
 
COEURDALENE,ID FAIR 56 33 42 W14 29.82S  
6HR MIN TEMP: 45; 6HR MAX TEMP: 56;  
 
DEER PARK FAIR 56 27 32 W7 29.81S  
6HR MIN TEMP: 46; 6HR MAX TEMP: 57;  
 

 
 
WAZ029>033-070100-  
SOUTHEAST WASHINGTON  
 
CITY SKY/WX TMP DP RH WIND PRES REMARKS
 
PULLMAN FAIR 52 35 52 SW13 29.87S  
6HR MIN TEMP: 50; 6HR MAX TEMP: 54;  
 
LEWISTON, ID PTSUNNY 60 34 37 NW13G18 29.84S  
6HR MIN TEMP: 50; 6HR MAX TEMP: 61;  
 
WALLA WALLA FAIR 60 38 43 SW7 29.86S  
6HR MIN TEMP: 49; 6HR MAX TEMP: 60;  
 
PENDLETON, OR FAIR 63 35 35 W10 29.86R  
6HR MIN TEMP: 52; 6HR MAX TEMP: 65;  
 

 
 
 
CLICK HERE TO GO TO PREVIOUS BULLETINS.

The Nexlab WA Page Main Text Page